sim
Sign-in with your pilot id or email,
or register
Callsign
Passwort

Schedule Details

Flight Number: UAE504
Departure: Dubai International Airport (OMDB) at 23:55
Arrival: Mumbai Chhatrapati Shivaji International Airport (VABB) at 02:55
Route: Emirates Passenger Schedule. Enter filed route here before submitting Pirep.

Weather Information
Getting current METAR information for OMDB 092300Z 11009KT 070V130 CAVOK 24/18 Q1015 NOSIG
Getting current METAR information for VABB 092300Z 07004KT 3000 HZ NSC 26/20 Q1012 NOSIG

Schedule Frequency

Route Map